Hourly Weather Abramovo

Today, 5 March, Friday

Time Temperature Precipitation Wind Pressure Humidity
00:00 -1°C° 0.1 mm 3 mps 745 mmHg 91%
01:00 -1°C° 0.1 mm 2 mps 745 mmHg 88%
02:00 -2°C° 0 mm 2 mps 745 mmHg 85%
03:00 -2°C° 0 mm 2 mps 746 mmHg 81%
04:00 -3°C° 0 mm 2 mps 746 mmHg 77%
05:00 -3°C° 0 mm 2 mps 746 mmHg 73%
06:00 -3°C° 0 mm 2 mps 746 mmHg 71%
07:00 -3°C° 0 mm 2 mps 747 mmHg 68%
08:00 -4°C° 0 mm 3 mps 747 mmHg 65%
09:00 -2°C° 0 mm 3 mps 747 mmHg 58%
10:00 -1°C° 0 mm 3 mps 748 mmHg 51%
11:00 0°C° 0 mm 3 mps 748 mmHg 45%
12:00 0°C° 0 mm 3 mps 748 mmHg 43%
13:00 +1°C° 0 mm 3 mps 748 mmHg 41%
14:00 +1°C° 0 mm 3 mps 749 mmHg 39%
15:00 +1°C° 0.1 mm 3 mps 749 mmHg 44%
16:00 +1°C° 0.1 mm 3 mps 749 mmHg 49%
17:00 0°C° 0.1 mm 3 mps 750 mmHg 54%
18:00 -1°C° 0 mm 3 mps 750 mmHg 56%
19:00 -2°C° 0 mm 2 mps 750 mmHg 59%
20:00 -1°C° 0 mm 1 mps 751 mmHg 61%
21:00 -1°C° 0 mm 1 mps 751 mmHg 58%
22:00 -1°C° 0 mm 1 mps 751 mmHg 56%
23:00 -1°C° 0 mm 1 mps 752 mmHg 53%

Tomorrow, 6 March, Saturday

Time Temperature Precipitation Wind Pressure Humidity
00:00 -1°C° 0 mm 1 mps 752 mmHg 52%
01:00 -3°C° 0 mm 2 mps 752 mmHg 51%
02:00 -3°C° 0 mm 2 mps 753 mmHg 50%
03:00 -4°C° 0 mm 3 mps 752 mmHg 57%
04:00 -4°C° 0 mm 3 mps 752 mmHg 63%
05:00 -4°C° 0 mm 4 mps 752 mmHg 70%
06:00 -4°C° 0 mm 4 mps 753 mmHg 68%
07:00 -4°C° 0 mm 4 mps 753 mmHg 66%
08:00 -4°C° 0 mm 4 mps 754 mmHg 64%
09:00 -3°C° 0 mm 4 mps 754 mmHg 58%
10:00 -3°C° 0 mm 4 mps 754 mmHg 52%
11:00 -2°C° 0 mm 4 mps 755 mmHg 46%
12:00 -1°C° 0 mm 4 mps 755 mmHg 44%
13:00 -1°C° 0 mm 4 mps 755 mmHg 41%
14:00 0°C° 0 mm 4 mps 754 mmHg 39%
15:00 -1°C° 0 mm 4 mps 754 mmHg 42%
16:00 -1°C° 0 mm 4 mps 754 mmHg 45%
17:00 -1°C° 0 mm 4 mps 754 mmHg 48%
18:00 -2°C° 0 mm 4 mps 753 mmHg 52%
19:00 -2°C° 0 mm 4 mps 753 mmHg 57%
20:00 -3°C° 0 mm 4 mps 753 mmHg 61%
21:00 -3°C° 0 mm 4 mps 752 mmHg 61%
22:00 -4°C° 0 mm 5 mps 751 mmHg 60%
23:00 -4°C° 0 mm 5 mps 751 mmHg 60%

Day after tomorrow, 7 March, Sunday

Time Temperature Precipitation Wind Pressure Humidity
00:00 -4°C° 0 mm 6 mps 750 mmHg 64%
01:00 -3°C° 0 mm 6 mps 750 mmHg 68%
02:00 -3°C° 0 mm 7 mps 749 mmHg 73%
03:00 -4°C° 0.1 mm 8 mps 748 mmHg 78%
04:00 -4°C° 0.1 mm 8 mps 748 mmHg 84%
05:00 -4°C° 0.1 mm 9 mps 747 mmHg 89%
06:00 -4°C° 0 mm 9 mps 747 mmHg 85%
07:00 -4°C° 0 mm 9 mps 746 mmHg 80%
08:00 -4°C° 0 mm 9 mps 746 mmHg 76%
09:00 -3°C° 0 mm 9 mps 746 mmHg 77%
10:00 -3°C° 0 mm 9 mps 746 mmHg 78%
11:00 -3°C° 0 mm 9 mps 746 mmHg 79%
12:00 -3°C° 0 mm 9 mps 746 mmHg 77%
13:00 -1°C° 0 mm 9 mps 746 mmHg 74%
14:00 -1°C° 0 mm 9 mps 746 mmHg 72%
15:00 -1°C° 0 mm 8 mps 745 mmHg 73%
16:00 -1°C° 0 mm 8 mps 744 mmHg 73%
17:00 -1°C° 0 mm 8 mps 744 mmHg 74%
18:00 -2°C° 0 mm 8 mps 744 mmHg 78%
19:00 -2°C° 0 mm 8 mps 744 mmHg 82%
20:00 -2°C° 0 mm 8 mps 744 mmHg 86%
21:00 -4°C° 0.2 mm 8 mps 744 mmHg 88%
22:00 -3°C° 0.2 mm 7 mps 744 mmHg 91%
23:00 -3°C° 0.2 mm 7 mps 744 mmHg 94%

8 March, Monday

Time Temperature Precipitation Wind Pressure Humidity
00:00 -4°C° 0.3 mm 6 mps 744 mmHg 88%
01:00 -3°C° 0.3 mm 4 mps 744 mmHg 82%
02:00 -4°C° 0.3 mm 3 mps 744 mmHg 76%
03:00 -4°C° 0 mm 3 mps 744 mmHg 76%
04:00 -4°C° 0 mm 3 mps 744 mmHg 76%
05:00 -5°C° 0 mm 3 mps 744 mmHg 76%
06:00 -5°C° 0 mm 3 mps 744 mmHg 75%
07:00 -5°C° 0 mm 3 mps 745 mmHg 74%
08:00 -5°C° 0 mm 3 mps 745 mmHg 73%
09:00 -4°C° 0 mm 4 mps 745 mmHg 68%
10:00 -3°C° 0 mm 4 mps 745 mmHg 63%
11:00 -3°C° 0 mm 4 mps 745 mmHg 58%
12:00 -2°C° 0.1 mm 4 mps 746 mmHg 57%
13:00 -2°C° 0.1 mm 5 mps 746 mmHg 56%
14:00 -1°C° 0.1 mm 5 mps 746 mmHg 55%
15:00 -2°C° 0.1 mm 5 mps 746 mmHg 58%
16:00 -2°C° 0.1 mm 5 mps 746 mmHg 60%
17:00 -2°C° 0.1 mm 5 mps 746 mmHg 62%
18:00 -4°C° 0.1 mm 5 mps 747 mmHg 65%
19:00 -5°C° 0.1 mm 5 mps 747 mmHg 69%
20:00 -4°C° 0.1 mm 4 mps 748 mmHg 72%
21:00 -5°C° 0 mm 4 mps 748 mmHg 71%
22:00 -7°C° 0 mm 4 mps 749 mmHg 70%
23:00 -7°C° 0 mm 4 mps 749 mmHg 69%

9 March, Tuesday

Time Temperature Precipitation Wind Pressure Humidity
00:00 -7°C° 0 mm 4 mps 750 mmHg 68%
01:00 -8°C° 0 mm 4 mps 750 mmHg 66%
02:00 -8°C° 0 mm 4 mps 751 mmHg 64%
03:00 -8°C° 0 mm 4 mps 751 mmHg 64%
04:00 -8°C° 0 mm 4 mps 751 mmHg 64%
05:00 -8°C° 0 mm 3 mps 752 mmHg 64%
06:00 -8°C° 0 mm 3 mps 752 mmHg 64%
07:00 -8°C° 0 mm 3 mps 752 mmHg 63%
08:00 -7°C° 0 mm 2 mps 753 mmHg 62%
09:00 -6°C° 0 mm 2 mps 753 mmHg 55%
10:00 -3°C° 0 mm 1 mps 753 mmHg 48%
11:00 -3°C° 0 mm 0 mps 754 mmHg 40%
12:00 -1°C° 0 mm 1 mps 754 mmHg 38%
13:00 -1°C° 0 mm 1 mps 754 mmHg 35%
14:00 0°C° 0 mm 1 mps 754 mmHg 32%
15:00 0°C° 0 mm 1 mps 753 mmHg 32%
16:00 -2°C° 0 mm 2 mps 753 mmHg 33%
17:00 -2°C° 0 mm 2 mps 753 mmHg 34%
18:00 -2°C° 0 mm 2 mps 753 mmHg 37%
19:00 -3°C° 0 mm 2 mps 753 mmHg 40%
20:00 -1°C° 0 mm 1 mps 753 mmHg 44%
21:00 -4°C° 0 mm 2 mps 753 mmHg 45%
22:00 -4°C° 0 mm 2 mps 753 mmHg 46%
23:00 -4°C° 0 mm 2 mps 753 mmHg 47%

10 March, Wednesday

Time Temperature Precipitation Wind Pressure Humidity
00:00 -4°C° 0 mm 2 mps 753 mmHg 48%
01:00 -4°C° 0 mm 2 mps 753 mmHg 48%
02:00 -5°C° 0 mm 3 mps 752 mmHg 49%
03:00 -5°C° 0 mm 3 mps 752 mmHg 50%
04:00 -5°C° 0 mm 3 mps 752 mmHg 51%
05:00 -6°C° 0 mm 3 mps 751 mmHg 52%
06:00 -6°C° 0 mm 3 mps 751 mmHg 53%
07:00 -5°C° 0 mm 3 mps 751 mmHg 53%
08:00 -5°C° 0 mm 3 mps 751 mmHg 54%
09:00 -4°C° 0 mm 3 mps 751 mmHg 49%
10:00 -3°C° 0 mm 4 mps 750 mmHg 44%
11:00 -2°C° 0 mm 4 mps 750 mmHg 39%
12:00 -1°C° 0 mm 4 mps 750 mmHg 38%
13:00 -1°C° 0 mm 4 mps 749 mmHg 37%
14:00 0°C° 0 mm 4 mps 749 mmHg 36%
15:00 0°C° 0 mm 4 mps 748 mmHg 38%
16:00 0°C° 0 mm 4 mps 748 mmHg 41%
17:00 0°C° 0 mm 4 mps 747 mmHg 44%
18:00 -1°C° 0 mm 4 mps 747 mmHg 48%
19:00 -2°C° 0 mm 4 mps 747 mmHg 51%
20:00 -3°C° 0 mm 4 mps 746 mmHg 55%
21:00 -2°C° 0 mm 4 mps 746 mmHg 57%
22:00 -2°C° 0 mm 4 mps 745 mmHg 59%
23:00 -2°C° 0 mm 4 mps 745 mmHg 60%
Show more